Jackson, KY

4:48 PM EDT on June 24, 2017 (GMT -0400)
Carroll

Weather History for KJKL - November, 2011

Change the Weather History Date:

Saturday, November 19, 2011

  Actual Average Record
Temperature  
Mean Temperature 52 °F 47 °F  
Max Temperature 65 °F 56 °F 79 °F (1985)
Min Temperature 38 °F 38 °F 16 °F (2014)
Degree Days  
Heating Degree Days 13 18  
Month to date heating degree days 247 280  
Since 1 July heating degree days 580 577  
Cooling Degree Days 0 0  
Month to date cooling degree days 3 0  
Year to date cooling degree days 1255 1150  
Moisture  
Dew Point 33 °F    
Average Humidity 48    
Maximum Humidity 57    
Minimum Humidity 38    
Precipitation  
Precipitation 0.00 in 0.14 in 1.35 in (1988)
Month to date precipitation 2.68 2.42  
Year to date precipitation 53.03 42.62  
Snow  
Snow 0.00 in 0.00 in T in (1984)
Month to date snowfall T 0.2  
Since 1 July snowfall T 0.3  
Since 1 September snowfall T 0.3  
Snow Depth 0.00 in    
Sea Level Pressure  
Sea Level Pressure 30.21 in    
Wind  
Wind Speed 5 mph (SSW)    
Max Wind Speed 16 mph    
Max Gust Speed 28 mph    
Visibility 10 miles    
Events      
T = Trace of Precipitation, MM = Missing Value Source: NWS Daily Summary

Daily Weather History Graph

Daily Weather History Graph

Search for Another Location

Airport or City:

Trip Planner

Search our weather history database for the weather conditions in past years. The results will help you decide how hot, cold, wet, or windy it might be!

Date:

Astronomy

Nov. 19, 2011 Rise Set
Actual Time 7:17 AM EST 5:19 PM EST
Civil Twilight 6:48 AM EST 5:48 PM EST
Nautical Twilight 6:17 AM EST 6:19 PM EST
Astronomical Twilight 5:45 AM EST 6:50 PM EST
Moon 12:43 AM EST (11/19) 1:30 PM EST (11/19)
Length of Visible Light 10h 59m
Length of Day
10h 02m
Last Quarter, 38% of the Moon is Illuminated
Nov 19
Last Quarter
Nov 25
New
Dec 2
First Quarter
Dec 10
Full
Dec 17
Last Quarter

Hourly Weather History & Observations

Time (EST) Temp. Windchill Dew Point Humidity Pressure Visibility Wind Dir Wind Speed Gust Speed Precip Events Conditions
12:53 AM 41.0 °F 38.0 °F 19.0 °F 41% 30.24 in 10.0 mi South 4.6 mph - N/A   Clear
1:53 AM 42.1 °F 39.2 °F 21.0 °F 43% 30.24 in 10.0 mi SSW 4.6 mph - N/A   Clear
2:53 AM 42.1 °F 39.2 °F 19.9 °F 41% 30.24 in 10.0 mi SSW 4.6 mph - N/A   Clear
3:53 AM 41.0 °F 38.0 °F 19.9 °F 43% 30.24 in 10.0 mi SSW 4.6 mph - N/A   Clear
4:53 AM 39.9 °F 37.8 °F 19.9 °F 45% 30.26 in 10.0 mi SSW 3.5 mph - N/A   Clear
5:53 AM 37.9 °F 35.5 °F 21.0 °F 51% 30.28 in 10.0 mi SSW 3.5 mph - N/A   Clear
6:53 AM 37.9 °F 34.4 °F 21.0 °F 51% 30.29 in 10.0 mi SSW 4.6 mph - N/A   Clear
7:53 AM 39.9 °F 37.8 °F 23.0 °F 51% 30.30 in 10.0 mi SSW 3.5 mph - N/A   Clear
8:53 AM 45.0 °F 43.5 °F 27.0 °F 49% 30.30 in 10.0 mi Variable 3.5 mph - N/A   Clear
9:53 AM 51.1 °F - 30.9 °F 46% 30.29 in 10.0 mi Variable 3.5 mph - N/A   Clear
10:53 AM 54.0 °F - 34.0 °F 47% 30.27 in 10.0 mi Variable 6.9 mph - N/A   Clear
11:53 AM 59.0 °F - 37.9 °F 46% 30.24 in 10.0 mi Variable 6.9 mph 20.7 mph N/A   Clear
12:53 PM 61.0 °F - 39.0 °F 44% 30.20 in 10.0 mi South 9.2 mph 18.4 mph N/A   Clear
1:53 PM 63.0 °F - 39.0 °F 41% 30.16 in 10.0 mi South 11.5 mph 20.7 mph N/A   Clear
2:53 PM 63.0 °F - 39.0 °F 41% 30.14 in 10.0 mi Variable 6.9 mph - N/A   Clear
3:53 PM 62.6 °F - 39.2 °F 42% 30.15 in 10.0 mi Variable 4.6 mph - N/A   Clear
4:53 PM 61.0 °F - 41.0 °F 48% 30.15 in 10.0 mi Variable 4.6 mph - N/A   Clear
5:53 PM 57.9 °F - 41.0 °F 53% 30.17 in 10.0 mi Variable 4.6 mph - N/A   Clear
6:53 PM 57.0 °F - 41.0 °F 55% 30.16 in 10.0 mi Variable 6.9 mph - N/A   Clear
7:53 PM 57.2 °F - 42.8 °F 59% 30.15 in 10.0 mi Variable 5.8 mph - N/A   Clear
8:53 PM 57.0 °F - 42.1 °F 57% 30.15 in 10.0 mi SSW 5.8 mph - N/A   Clear
9:53 PM 57.0 °F - 43.0 °F 59% 30.15 in 10.0 mi Variable 3.5 mph - N/A   Clear
10:53 PM 57.0 °F - 43.0 °F 59% 30.16 in 10.0 mi SSW 3.5 mph - N/A   Clear
11:53 PM 55.9 °F - 44.1 °F 64% 30.16 in 10.0 mi Variable 5.8 mph - N/A   Clear